This is the latest recevied weather packets stored in our database for station/object KE0LFX. If no packets are shown the sender has not sent any weather packets the latest 10 day(s).
| Time | Temp. | Humidity | Pressure | Rain* | Wind** | Luminosity | Snow |
|---|---|---|---|---|---|---|---|
| 1777900582 | 16.11° C | 56% | 1006.1 hPa | 0 mm | - | 37 W/m² | - |
| 1777900279 | 15.56° C | 57% | 1006.3 hPa | 0 mm | - | 37 W/m² | - |
| 1777899975 | 15° C | 58% | 1006.3 hPa | 0 mm | - | 37 W/m² | - |
| 1777899672 | 15° C | 58% | 1006.6 hPa | 0 mm | - | 37 W/m² | - |
| 1777899370 | 14.44° C | 59% | 1006.6 hPa | 0 mm | - | 35 W/m² | - |
| 1777899067 | 14.44° C | 59% | 1006.7 hPa | 0 mm | - | 35 W/m² | - |
| 1777898763 | 13.89° C | 60% | 1006.5 hPa | 0 mm | - | 41 W/m² | - |
| 1777898461 | 13.89° C | 60% | 1006.8 hPa | 0 mm | - | 33 W/m² | - |
| 1777898159 | 13.33° C | 60% | 1006.7 hPa | 0 mm | - | 37 W/m² | - |
| 1777897855 | 13.33° C | 61% | 1006.6 hPa | 0 mm | - | 32 W/m² | - |
| 1777897551 | 12.78° C | 61% | 1006.8 hPa | 0 mm | - | 31 W/m² | - |
| 1777897248 | 12.78° C | 61% | 1006.7 hPa | 0 mm | - | 30 W/m² | - |
| 1777896943 | 12.78° C | 61% | 1006.9 hPa | 0 mm | - | 29 W/m² | - |
| 1777896641 | 12.22° C | 62% | 1007 hPa | 0 mm | - | 27 W/m² | - |
| 1777896338 | 12.22° C | 62% | 1006.9 hPa | 0 mm | - | 26 W/m² | - |
| 1777896036 | 11.67° C | 62% | 1006.8 hPa | 0 mm | - | 25 W/m² | - |
| 1777895734 | 12.22° C | 62% | 1007 hPa | 0 mm | - | 23 W/m² | - |
| 1777895431 | 12.22° C | 61% | 1006.9 hPa | 0 mm | - | 21 W/m² | - |
| 1777895128 | 12.22° C | 60% | 1006.8 hPa | 0 mm | - | 19 W/m² | - |
| 1777894826 | 12.22° C | 60% | 1006.6 hPa | 0 mm | - | 17 W/m² | - |
| 1777894522 | 11.67° C | 61% | 1006.4 hPa | 0 mm | - | 16 W/m² | - |
| 1777894220 | 11.67° C | 61% | 1006.7 hPa | 0 mm | - | 13 W/m² | - |
| 1777893916 | 11.67° C | 62% | 1006.7 hPa | 0 mm | - | 12 W/m² | - |
| 1777893613 | 11.67° C | 62% | 1006.6 hPa | 0 mm | - | 9 W/m² | - |
| 1777893309 | 11.11° C | 62% | 1006.9 hPa | 0 mm | - | 7 W/m² | - |
* Rain latest hour (hover to see other rain measurements)
** Current wind speed in m/s (hover to see current wind gust speed)